Flag for Germany Weather past 2 weeks in Rendsburg, Schleswig-Holstein, Germany

Now
63 °F

Mild.


Feels Like: 63 °F
Forecast: 58 / 64 °F
Wind: 6 mph from Northeast

Location: Hohn

Current Time: Aug 31, 2015 at 3:28:04 AM

Latest Report: Aug 31, 2015 at 2:20 AM


Visibility: 2 mi

Pressure: 30.01 "Hg

Humidity: 88%

Dew point: 59 °F

Location of RendsburgLocation

Historic Weather in Rendsburg — Graph

°F

Rendsburg temperature yesterday

Maximum temperature yesterday: 68 °F (at 11:20 AM)
Minimum temperature yesterday: 52 °F (at 2:20 AM)
Average temperature yesterday: 61 °F

Past Weeks' High & Low Weather Summary

 TemperatureHumidityPressure
High77 °F (Aug 21, 2:20 PM)100% (Aug 16, 1:20 AM)30.30 "Hg (Aug 16, 1:20 AM)
Low52 °F (Aug 21, 1:20 AM)34% (Aug 22, 3:20 PM)29.59 "Hg (Aug 24, 7:20 PM)
Average63 °F81%29.98 "Hg
* Reported Aug 16 1:20 AM — Aug 31 1:20 AM, Rendsburg, Weather by CustomWeather, © 2015

Note: Actual official high and low records may vary slightly from our data, if they occured in-between our weather recording intervals... More about our weather records

Advertising

Rendsburg weather history for previous 24 hours

 ConditionsComfort  
Time TempWeatherWind HumidityBarometerVisibility
1:20 AM
Mon, Aug 31
63 °FMild.8 mph88%30.01 "Hg2 mi
12:20 AM63 °FMild.5 mph88%30.04 "Hg2 mi
11:20 PM
Sun, Aug 30
63 °FMild.7 mph88%30.04 "Hg2 mi
10:20 PM64 °FMild.8 mph88%30.04 "Hg2 mi
9:20 PM64 °FMild.8 mph83%30.07 "Hg2 mi
8:20 PM64 °FMild.10 mph73%30.07 "Hg2 mi
7:20 PM66 °FMild.13 mph73%30.07 "Hg2 mi
6:20 PM68 °FMild.14 mph64%30.07 "Hg3 mi
5:20 PM68 °FMild.15 mph69%30.07 "Hg3 mi
4:20 PM68 °FMild.13 mph64%30.07 "Hg3 mi
3:20 PM66 °FMild.12 mph68%30.09 "Hg2 mi
2:20 PM66 °FMild.12 mph78%30.09 "Hg2 mi
1:20 PM68 °FMild.10 mph64%30.12 "Hg3 mi
12:20 PM68 °FMild.9 mph69%30.09 "Hg2 mi
11:20 AM68 °FMild.9 mph64%30.09 "Hg2 mi
10:20 AM63 °FMild.7 mph83%30.12 "Hg2 mi
9:20 AM61 °FCool.5 mph88%30.12 "Hg2 mi
8:20 AM57 °FCool.No wind94%30.12 "Hg2 mi
7:20 AM55 °FCool.1 mph94%30.12 "Hg2 mi
6:20 AM52 °FCool.No wind100%30.12 "Hg2 mi
5:20 AM54 °FCool.1 mph94%30.12 "Hg2 mi
4:20 AM52 °FCool.1 mph100%30.12 "Hg2 mi
3:20 AM52 °FCool.1 mph94%30.12 "Hg2 mi
Weather by CustomWeather, © 2015

See weather overviewHow to use our weather pages